This is the latest recevied weather packets stored in our database for station/object G8PZT. If no packets are shown the sender has not sent any weather packets the latest 10 day(s).
| Time | Temp. | Humidity | Pressure | Rain* | Wind** | Luminosity | Snow |
|---|---|---|---|---|---|---|---|
| 1788524322 | 19.44° C | 24% | - | 0 mm | - | - | - |
| 1788523720 | 19.44° C | 26% | - | 0 mm | - | - | - |
| 1788523202 | 19.44° C | 25% | - | 1.02 mm | - | - | - |
| 1788523120 | 20° C | 24% | - | 1.02 mm | - | - | - |
| 1788522520 | 19.44° C | 23% | - | 1.02 mm | - | - | - |
| 1788522002 | 20° C | 23% | - | 1.02 mm | - | - | - |
| 1788521920 | 20° C | 23% | - | 1.02 mm | - | - | - |
| 1788521321 | 19.44° C | 25% | - | 1.02 mm | - | - | - |
| 1788520802 | 18.33° C | 30% | - | 1.02 mm | - | - | - |
| 1788520721 | 18.33° C | 29% | - | 1.02 mm | - | - | - |
| 1788520121 | 18.33° C | 29% | - | 0 mm | - | - | - |
| 1788519602 | 18.33° C | 31% | - | 0 mm | - | - | - |
| 1788519521 | 18.33° C | 31% | - | 0 mm | - | - | - |
| 1788518921 | 17.78° C | 35% | - | 0 mm | - | - | - |
| 1788518403 | 17.22° C | 38% | - | 0 mm | - | - | - |
| 1788518321 | 17.22° C | 38% | - | 0 mm | - | - | - |
| 1788517721 | 17.22° C | 38% | - | 0 mm | - | - | - |
| 1788517202 | 17.22° C | 37% | - | 0 mm | - | - | - |
| 1788517121 | 17.22° C | 37% | - | 0 mm | - | - | - |
| 1788516520 | 17.22° C | 38% | - | 0 mm | - | - | - |
| 1788516002 | 17.22° C | 40% | - | 0 mm | - | - | - |
| 1788515920 | 17.22° C | 41% | - | 0 mm | - | - | - |
| 1788515320 | 16.67° C | 41% | - | 0 mm | - | - | - |
| 1788514802 | 16.67° C | 45% | - | 0 mm | - | - | - |
| 1788514720 | 16.67° C | 47% | - | 0 mm | - | - | - |
* Rain latest hour (hover to see other rain measurements)
** Current wind speed in m/s (hover to see current wind gust speed)